Regional Weather Roundup
Issued by NWS

Home | Current Version | Previous Version | Graphics & Text | Print | Product List | Glossary On
Versions: 1 2 3 4 5 6 7 8 9 10 11 12 13 14 15 16 17 18 19 20 21 22 23 24 25 26 27 28 29 30 31 32 33 34 35 36 37 38 39 40 41 42 43 44 45 46 47 48 49 50
000
ASUS43 KLOT 300300
RWRIL

ILLINOIS REGIONAL WEATHER ROUNDUP
NATIONAL WEATHER SERVICE CHICAGO/ROMEOVILLE IL
1000 PM CDT SAT AUG 29 2015

NOTE: "FAIR" INDICATES FEW OR NO CLOUDS BELOW 12,000 FEET WITH NO
SIGNIFICANT WEATHER AND/OR OBSTRUCTIONS TO VISIBILITY.

* THESE STATIONS ARE NOT UNDER NWS QUALITY CONTROL. THEY ALSO MAY NOT
  REPORT WEATHER SUCH AS PRECIPITATION OR FOG.

ILZ001-002-007-009-015-016-024-300400-
NORTHWEST ILLINOIS

CITY           SKY/WX    TMP DP  RH WIND       PRES   REMARKS
MOLINE         MOCLDY    65  63  93 CALM      30.04S FOG
STERLING*      CLOUDY    70  66  88 NE5       30.03R
$$

ILZ003-004-008-010-011-017-018-300400-
NORTH CENTRAL ILLINOIS

CITY           SKY/WX    TMP DP  RH WIND       PRES   REMARKS
ROCKFORD       CLOUDY    68  63  84 NE5       30.06S
FREEPORT*      CLOUDY    64  63  94 CALM      30.07S
$$

ILZ005-006-012>014-019>023-300400-
NORTHEAST ILLINOIS

CITY           SKY/WX    TMP DP  RH WIND       PRES   REMARKS
CHICAGO-OHARE  CLOUDY    67  65  93 N3        30.03S FOG
CHICAGO-MIDWAY LGT RAIN  70  66  87 N7        30.03S FOG
AURORA         CLOUDY    68  66  93 NE5       30.05R FOG
LANSING*       CLOUDY    69  65  90 N6        30.03S
WAUKEGAN       CLOUDY    63  63 100 N5        30.03S FOG
DUPAGE AIRPORT CLOUDY    67  65  93 CALM      30.04R FOG
WHEELING       CLOUDY    67  65  93 N5        30.05R FOG
NORTHERLY ISL    N/A     65  63  93 NW5         N/A
$$

LMZ740>746-300400-
SOUTHERN LAKE MICHIGAN

STATION/POSITION SKY/WX   TEMP    WIND        PRES    VSBY  WAVE
                          AIR SEA DIR/SP/G                  HT/PER
                          (F)     (DEG/KT/KT) (MB)    (MI)  (FT/S)
SOUTHERN BUOY              67 68   30/  6/  8 1016.5R         1/ 3
WILMETTE HARBOR            56 55  130/  4/  4   N/A           1/ 3
HARRISON CRIB              62     350/  7/  8   N/A
BURNHAM HARBOR             64     360/  7/  8   N/A
BURNS HARBOR               70     250/  5/  7 1016.9R
MICHIGAN CITY              71     140/  7/  8   N/A
MICHIGAN CITY 6N           71 70  160/  4/  4   N/A           0
ST. JOSEPH                 70 70  230/  4/  6   N/A           0
$$

ILZ025>027-034>036-040-047-049-050-058-095>099-300400-
WEST-CENTRAL ILLINOIS

CITY           SKY/WX    TMP DP  RH WIND       PRES   REMARKS
QUINCY         PTCLDY    73  69  87 NE3       30.02R
$$

ILZ028>032-037-038-041>044-048-051>054-059>061-300400-
CENTRAL ILLINOIS

CITY           SKY/WX    TMP DP  RH WIND       PRES   REMARKS
DECATUR        MOCLDY    74  66  76 SW5       30.03S
PEORIA         CLOUDY    75  68  78 N3        30.03R
SPRINGFIELD    CLOUDY    74  69  85 S3        30.03R
TAYLORVILLE    NOT AVBL
$$

ILZ033-039-045-046-055>057-062-063-300400-
EAST-CENTRAL ILLINOIS

CITY           SKY/WX    TMP DP  RH WIND       PRES   REMARKS
CHAMPAIGN      CLOUDY    71  67  87 SW3       30.04R
MATTOON        HAZE      73  67  81 S6        30.04S VSB 1/2
$$

ILZ079-100>102-300400-
SOUTHWEST ILLINOIS

CITY           SKY/WX    TMP DP  RH WIND       PRES   REMARKS
ALTON          PTCLDY    70  50  49 CALM      30.03R
BELLEVILLE     MOCLDY    72  71  99 E1        30.02S
CAHOKIA*       MOCLDY    74  68  81 S7        30.02R
$$

ILZ064>066-069>071-074>076-080>082-084>086-088>090-092>094-300400-
SOUTH-CENTRAL ILLINOIS

CITY           SKY/WX    TMP DP  RH WIND       PRES   REMARKS
CARBONDALE     RAIN      72  70  93 E7        30.04S FOG
MT. VERNON     CLOUDY    70  64  83 CALM      30.06S
$$

ILZ067-068-072-073-078-083-087-091-300400-
SOUTHEAST ILLINOIS

CITY           SKY/WX    TMP DP  RH WIND       PRES   REMARKS
LAWRENCEVILLE  CLOUDY    73  70  90 CALM      30.06R
FLORA*         CLOUDY    70  67  91 CALM      30.05S
ROBINSON*      CLOUDY    70  68  93 CALM      30.06S
$$

ABBREVIATIONS USED IN REMARKS
   TC - TEMPERATURE IN CELSIUS
  WCI - WIND CHILL INDEX
   HX - HEAT INDEX
  VSB - VISIBILITY
$$



USA.gov is the U.S. government's official web portal to all federal, state and local government web resources and services.